COSMOS 2550

Last updated on Sun Apr 12 2026 00:02:18 GMT+0000 (Coordinated Universal Time)

1 48865U 21056A 26101.57756507 -.00000175 00000+0 51682-6 0 9998 2 48865 67.1428 301.3992 0008451 271.0018 89.0168 15.33827659268507
UTC large
Height (km)
Speed (km/s)
/
Latitude / Longitude
Inclination (degrees)
Orbital Period (minutes)
Azimuth
Elevation
Range (km)
Doppler Factor

Next 0 passes for location: London (51.5072 / 0.1276)

Sorry there are no passes over London.
COSMOS 2550